RS-38S
1 57189U 23091Z   26201.81629664  .00011274  00000-0  31377-3 0  9997
2 57189  97.5069 271.9970 0005252 315.2147  44.8672 15.36981650169854
SONATE-2
1 59112U 24043Q   26201.68639941  .00028857  00000-0  34254-3 0  9999
2 59112  97.5562 354.2089 0006554  88.9511 271.2496 15.61132647133113
GRBBeta
1 60237U 24128C   26201.13651322  .00001868  00000-0  13754-3 0  9995
2 60237  61.9889 100.6458 0036428 141.7749 218.5938 15.06828268111231
Curium One
1 60242U 24128H   26201.81564495  .00004669  00000-0  27260-3 0  9999
2 60242  61.9781  86.6294 0035628 138.0579 222.3256 15.12911740111545
ROBUSTA-3A
1 60243U 24128J   26201.86586568  .00004958  00000-0  29524-3 0  9996
2 60243  61.9861  89.1107 0037300 134.8487 225.5649 15.12035147111513
CatSat
1 60246U 24125J   26201.86326277  .00057492  00000-0  63190-3 0  9993
2 60246  97.2059  54.9021 0019570  63.1062 297.2194 15.62768335112647
HYPERVIEW-1G (RS66S)
1 61772U 24199AP  26201.72930448  .00205505  00000-0  76960-3 0  9994
2 61772  97.2787  83.4065 0008166 138.8405 221.3484 15.87333013139978
AO-123
1 61781U 24199AY  26201.84779082  .00005206  00000-0  14992-3 0  9995
2 61781  97.2957  70.2177 0013617 179.9311 180.1937 15.36103960139092
JINJUSat 1B
1 63210U 25052A   26200.69621157  .00008989  00000-0  27187-3 0  9995
2 63210  97.3956  97.5108 0002706  16.4085 343.7245 15.34436603 75085
NUSHSAT 1
1 63211U 25052B   26201.53124191  .00013188  00000-0  36440-3 0  9995
2 63211  97.3930  99.0343 0002571  28.7833 331.3553 15.37171166 75261
TEVEL2-4
1 63213U 25052D   26201.22894966  .00010410  00000-0  30230-3 0  9993
2 63213  97.3852  97.6941 0003105  41.7416 318.4064 15.35674787 75189
TEVEL2-5
1 63214U 25052E   26201.70951318  .00011471  00000-0  33470-3 0  9999
2 63214  97.3850  98.1137 0003066  43.1625 316.9858 15.35497707 75252
TEVEL2-6
1 63215U 25052F   26201.46193819  .00011580  00000-0  33832-3 0  9990
2 63215  97.3857  97.8506 0003173  45.7314 314.4190 15.35454979 75210
TEVEL2-1
1 63217U 25052H   26201.50298469  .00010916  00000-0  32491-3 0  9996
2 63217  97.3828  97.4752 0003777  48.6213 311.5355 15.34882751 75201
TEVEL2-3
1 63218U 25052J   26201.23556228  .00009843  00000-0  29271-3 0  9996
2 63218  97.3836  97.2337 0003659  50.1698 309.9867 15.34939531 75165
TEVEL2-2
1 63219U 25052K   26201.43788071  .00010279  00000-0  30603-3 0  9998
2 63219  97.3828  97.4131 0003898  48.9393 311.2187 15.34891406 75195
TEVEL2-9
1 63237U 25052AD  26201.26333412  .00009848  00000-0  31278-3 0  9993
2 63237  97.3892  96.5399 0007209  42.4598 317.7200 15.32827728 75098
TEVEL2-7
1 63238U 25052AE  26201.70263007  .00009851  00000-0  31592-3 0  9998
2 63238  97.3894  96.8798 0007268  41.4161 318.7630 15.32517525 75153
TEVEL2-8
1 63239U 25052AF  26201.25413935  .00009166  00000-0  29438-3 0  9991
2 63239  97.3895  96.4084 0007392  43.6806 316.5020 15.32492928 75087
SPIRONE
1 66657U 25274H   26201.75156399  .00001380  00000-0  13582-3 0  9990
2 66657  97.7470 130.5652 0010366 261.9765  98.0279 14.93665389 35232
K-HERO
1 66660U 25274L   26201.74690345  .00001292  00000-0  12625-3 0  9996
2 66660  97.7479 130.7462 0012224 266.9463  93.0358 14.94072216 35247
SNUGLITE-III DURI
1 66661U 25274M   26201.73392966  .00000788  00000-0  79006-4 0  9990
2 66661  97.7474 130.7542 0012908 268.0677  91.9064 14.94098429 35246
SAKHACUBE-CHOLBON
1 67290U 25313AU  26201.75171102  .00005896  00000-0  23601-3 0  9996
2 67290  97.3914 276.3774 0008110 228.1348 131.9198 15.25418223 31091
RS95S (QMR-KWT-2)
1 67291U 25313AV  26201.77183546  .00008136  00000-0  30894-3 0  9996
2 67291  97.3911 276.6491 0007937 223.8707 136.1903 15.27060153 31116
Ten-Koh2
1 68261U 25241B   26201.19498399  .00002735  00000-0  12435-3 0  9995
2 68261  51.6567 162.4992 0004643 247.5768 112.4719 15.24200182 19947
JACK-002
1 68417U 26067B   26201.87624322  .00004227  00000-0  20084-3 0  9994
2 68417  97.4585 160.0629 0003381 123.9027 236.2530 15.19755606 17069
DISCO 2
1 68431U 26067R   26201.83759647  .00005526  00000-0  26336-3 0  9994
2 68431  97.4619 160.0144 0001210 160.2592 199.8690 15.19520263 17054
HADES-SA (SpinnyONE)
1 68446U 26067AG  26201.80413918  .00010868  00000-0  50586-3 0  9994
2 68446  97.4418 159.6260 0005207 343.4174  16.6890 15.20095871 17031
PARUS-6U1
1 68456U 26067AS  26201.87952758  .00003727  00000-0  18752-3 0  9997
2 68456  97.4570 159.7362 0004173 325.2816  34.8145 15.17829990 17046
SAL-E
1 68458U 26067AU  26201.86822108  .00004937  00000-0  24477-3 0  9998
2 68458  97.4492 159.6431 0004588 337.7634  22.3401 15.18188281 17042
FSI-SAT 2
1 68792U 26088A   26201.35319467  .00002451  00000-0  16718-3 0  9993
2 68792  97.5113 349.7920 0014060   0.3232 359.8002 15.07063493 13284
OrigamiSat 2
1 68795U 26088D   26201.38182475  .00005714  00000-0  36081-3 0  9996
2 68795  97.5106 350.0640 0013744 327.6889  32.3497 15.09383145 13309
ARICA 2
1 68796U 26088E   26201.39302333  .00001803  00000-0  11890-3 0  9991
2 68796  97.5099 350.0340 0014633 329.4341  30.6034 15.08650652 13306
WASEDA-SAT-ZERO-II
1 68797U 26088F   26201.38288495  .00002748  00000-0  17766-3 0  9990
2 68797  97.5095 350.0451 0014340 328.6321  31.4051 15.08958102 13309
MANGARO-II-Piscus
1 68798U 26088G   26201.37161451  .00001923  00000-0  12529-3 0  9998
2 68798  97.5108 350.0714 0018058 331.5559  28.4683 15.08984987 13300
IO-86
1 40931U          25360.30710720  .00000000  00000-0  12800-3 0    00
2 40931   6.0006 332.5373 0012733 338.8432   8.1437 14.79075515    01
LILIUM-4                
1 71922C 26067AC  26089.50133053 -.00014632  00000+0 -74472-3 0    04
2 71922  97.4497  49.1617 0004341   5.9603 355.7042 15.16896692    16
